SCP
0 0 1 1 1 1 0 0 0 0 0 0 1 1 1 1 1 1 2 3 6 7 6 5 5 5 6 7 6 5 5 4 4 4 4 3 3 2 2 2 4 5 5 5 5 5 4 4 4
0 0 1 1 1 0 0 0 0 0 0 0 1 2 2 1 1 1 2 4 6 7 6 5 5 6 7 7 7 6 5 5 5 5 4 4 3 2 2 2 3 4 5 4 5 5 5 4 4
0 0 1 1 0 0 0 0 0 0 0 1 2 2 2 2 2 2 3 5 7 7 6 5 5 6 7 8 8 7 6 5 5 5 5 4 3 2 2 2 3 4 5 4 5 6 6 5 5
0 1 1 1 0 0 0 0 0 0 1 2 3 3 3 2 2 2 4 6 8 7 5 5 6 7 8 8 8 8 7 6 5 5 5 5 4 3 2 2 3 4 5 4 5 6 6 6 5
1 1 1 1 0 0 0 0 0 0 2 3 4 3 3 2 2 3 5 7 8 7 5 5 6 7 8 9 9 8 7 6 5 4 4 5 5 4 3 2 2 3 4 4 5 5 6 6 5
1 1 1 0 0 0 0 0 0 1 2 4 4 4 3 2 2 3 4 6 6 6 5 5 5 7 8 9 9 9 8 6 5 4 4 4 5 4 3 2 2 3 4 5 5 5 6 6 6
1 1 1 0 0 0 0 0 0 1 3 4 4 4 3 3 3 3 4 5 5 5 5 5 5 6 8 9 9 9 8 6 5 4 4 4 5 5 4 3 2 3 4 5 5 5 6 6 6
1 1 0 0 0 0 0 0 1 3 4 4 4 3 2 3 4 4 5 5 4 5 5 5 5 6 7 8 8 8 7 6 5 4 4 4 4 5 4 3 2 2 4 5 5 5 6 6 5
1 0 0 0 0 0 1 2 4 5 6 5 4 3 2 4 5 5 5 6 5 5 5 5 5 6 7 7 7 7 6 5 5 4 4 4 5 5 4 3 3 2 3 5 6 6 6 6 5
1 0 0 0 0 1 1 3 5 6 6 5 4 3 3 4 5 6 6 6 6 5 5 4 5 6 6 7 6 6 5 4 4 4 4 5 5 5 5 4 3 3 3 5 6 7 7 6 5
0 0 0 1 1 2 2 3 5 6 6 5 4 3 3 4 5 6 6 7 6 5 4 4 4 5 6 6 6 5 4 4 4 4 5 5 5 5 5 4 4 3 3 5 7 7 6 5 5
0 1 1 2 2 3 3 4 5 6 5 4 3 3 3 3 3 5 6 6 6 5 4 3 3 4 5 5 5 4 4 4 4 4 4 5 6 5 5 5 4 3 3 5 6 6 5 4 4
1 1 2 3 4 5 6 6 6 5 4 3 3 3 3 2 3 4 5 6 5 5 4 3 2 3 4 5 5 4 3 3 4 4 4 4 6 6 5 5 4 3 3 4 6 5 5 3 2
2 2 2 2 3 5 6 6 5 3 2 2 3 2 2 2 2 3 5 6 5 4 4 3 2 2 3 4 4 4 3 3 3 3 3 4 6 6 6 5 4 2 2 3 4 5 4 2 1
1 1 1 1 1 3 4 3 2 1 1 2 2 2 2 2 2 3 5 6 5 5 4 3 2 2 2 3 3 3 3 3 3 3 3 4 5 6 5 4 3 1 1 2 3 3 2 1 0
1 1 0 0 0 1 1 1 0 0 1 1 2 2 2 2 2 3 5 6 6 5 3 3 2 2 2 2 2 2 2 2 2 2 2 3 5 6 5 3 2 1 1 1 2 2 1 0 0
0 0 0 0 0 0 0 0 0 0 1 1 1 2 1 1 1 3 5 6 5 4 3 3 2 2 2 2 2 2 2 1 1 1 2 3 5 5 3 2 2 2 1 1 1 1 1 0 0
0 0 0 0 0 0 0 0 0 0 0 1 1 1 1 1 1 3 4 5 4 3 2 2 2 2 2 2 2 2 1 1 1 1 1 3 4 3 1 1 2 2 2 1 1 1 0 0 0
0 0 0 0 0 0 0 0 0 0 0 0 0 1 1 1 1 3 4 5 4 2 2 2 2 2 2 2 2 1 1 1 0 0 1 2 2 1 0 1 1 2 2 1 1 0 0 0 0
0 0 0 0 0 0 0 0 0 0 0 0 0 0 1 1 2 3 4 4 3 2 1 2 2 2 2 2 1 1 1 1 0 0 1 1 1 1 0 0 1 1 1 1 1 0 0 0 0
0 0 0 0 0 0 0 0 0 0 0 0 0 0 0 1 2 3 4 3 2 1 1 2 2 2 2 2 1 1 1 0 0 0 0 1 1 1 0 0 0 0 1 1 1 0 0 1 1
0 0 0 0 0 0 0 0 0 0 0 0 0 0 0 1 1 2 3 2 2 2 2 2 2 2 2 1 1 1 1 0 0 0 0 1 1 1 0 0 0 0 0 1 1 0 1 1 1
0 0 0 0 0 0 0 0 0 0 0 0 0 0 0 1 1 2 2 2 2 2 2 2 2 2 1 1 1 0 0 0 0 0 0 0 1 1 0 0 0 0 0 0 0 0 1 1 1
0 0 0 0 0 0 0 0 0 0 0 0 0 0 0 0 1 1 2 2 2 1 2 2 1 1 1 1 0 0 0 0 0 0 0 0 0 1 0 0 0 0 0 0 0 0 1 1 1
0 0 0 0 0 0 0 0 0 0 0 0 0 0 0 0 1 1 1 1 1 1 1 2 2 1 1 1 0 0 0 0 0 0 0 0 0 0 0 0 0 0 0 0 0 0 0 1 1
0 0 0 0 0 0 0 0 0 0 0 0 0 0 0 0 1 1 1 1 1 1 1 1 1 1 1 0 0 0 0 0 0 0 0 0 0 0 0 0 0 0 0 0 0 0 0 0 0
0 0 0 0 0 0 0 0 0 0 0 0 0 0 0 0 1 1 1 1 1 1 1 1 1 1 0 0 0 0 0 0 0 0 0 0 0 0 0 0 0 0 0 0 0 0 0 0 0
0 0 0 0 0 0 0 0 0 0 0 0 0 0 0 0 1 1 1 1 1 1 1 0 0 0 0 0 0 0 0 0 0 0 0 0 0 0 0 0 0 0 0 0 0 0 0 0 0
0 0 0 0 0 0 0 0 0 0 0 0 0 0 0 1 1 1 1 1 1 1 0 0 0 0 0 0 0 0 0 0 0 0 0 0 0 0 0 0 0 0 0 0 0 0 0 0 0
0 0 0 0 0 0 0 0 0 0 0 0 0 0 0 1 1 1 1 1 1 1 0 0 0 0 0 0 0 0 0 0 0 0 0 0 0 0 0 0 0 0 0 0 0 0 0 0 0
Wind_Speed
9 6 2 4 5 2 4 5 3 2 2 2 0 3 4 3 3 3 1 5 8 8 7 9 9 10 11 11 11 11 11 10 10 10 10 10 10 10 11 10 10 10 10 10 10 10 9 9 9
4 3 4 4 4 3 5 5 5 4 3 1 2 3 3 2 2 3 3 4 9 8 7 7 9 10 11 11 11 11 11 10 10 10 10 10 10 10 10 10 10 10 10 9 9 9 9 8 8
4 1 3 3 4 7 6 4 5 4 2 1 2 3 3 1 2 1 2 6 7 6 7 8 10 10 10 10 11 11 10 10 10 10 9 10 10 10 10 10 10 10 9 9 8 8 8 8 8
2 3 3 2 6 6 4 3 3 2 3 3 3 3 3 3 1 1 5 7 7 5 5 8 10 10 9 9 10 10 10 10 10 10 9 9 10 9 9 9 9 9 9 9 8 8 7 7 7
3 3 2 3 7 4 3 3 2 0 1 2 2 2 2 4 3 5 5 6 7 5 4 7 9 10 9 9 9 9 9 9 9 9 10 9 9 9 8 8 8 8 8 8 8 7 7 6 6
3 3 3 6 6 3 2 3 1 1 1 2 2 3 1 2 4 3 5 5 5 6 5 6 7 8 8 9 8 8 8 9 9 9 9 9 9 9 8 7 7 7 7 7 7 7 6 6 6
3 3 4 5 3 2 2 1 0 0 1 2 0 3 1 3 2 2 4 5 4 4 4 4 5 6 7 8 7 7 7 8 8 9 8 8 8 8 8 7 6 7 7 7 7 7 6 6 6
3 3 2 3 3 3 3 2 1 1 1 2 2 4 3 3 1 2 4 4 4 4 3 3 3 3 4 5 6 6 5 6 7 8 8 7 7 7 7 6 6 6 6 6 6 6 5 5 5
3 2 4 4 3 2 2 2 3 2 1 2 2 1 3 2 2 4 3 3 3 3 2 2 3 3 3 3 5 5 5 5 6 7 8 6 3 4 4 5 5 5 6 6 5 5 4 4 4
3 3 5 3 2 2 2 2 3 2 3 3 3 3 2 2 4 4 4 4 3 2 1 2 2 2 2 2 3 3 3 3 3 4 5 3 3 2 4 5 5 4 4 4 4 4 4 3 2
2 3 2 3 3 2 2 2 2 1 3 3 2 2 1 1 2 3 3 4 5 4 2 1 2 2 2 2 2 2 2 2 2 4 4 4 3 2 3 2 2 2 3 2 2 2 1 1 1
1 2 3 3 2 2 2 2 2 1 5 4 3 3 2 1 2 3 2 3 4 4 2 1 1 2 2 2 2 2 2 2 2 3 4 4 3 3 3 2 2 1 1 2 1 1 1 1 1
2 2 2 3 2 3 3 3 3 4 5 3 2 2 2 2 2 2 2 2 2 3 3 2 2 2 2 2 1 1 2 2 2 2 3 3 3 4 3 2 2 1 2 2 2 1 1 1 1
1 1 3 4 5 3 3 5 3 6 3 2 2 3 3 3 2 1 1 2 2 2 3 2 2 1 2 2 2 2 1 2 2 2 3 4 3 3 3 3 3 2 2 2 2 2 2 1 1
0 2 4 3 4 3 2 6 6 6 2 3 4 4 3 3 2 2 2 2 3 2 2 2 2 1 1 2 2 1 1 2 2 2 3 4 3 4 4 3 3 2 2 2 2 2 1 1 1
1 1 3 4 2 3 2 8 6 4 2 4 4 4 3 3 3 3 2 2 2 2 1 1 1 1 1 1 1 1 1 1 1 1 2 3 3 4 4 4 3 3 2 2 3 2 2 1 1
2 1 3 5 2 1 3 7 7 4 3 4 4 4 3 3 4 3 2 3 3 2 2 2 1 1 1 1 1 1 1 1 1 1 1 2 3 3 3 4 3 3 2 2 3 2 2 2 1
2 2 3 5 3 2 5 8 8 5 4 4 4 4 3 3 5 4 2 2 2 3 3 2 1 1 1 1 1 1 1 0 0 0 1 1 2 2 2 3 3 3 2 2 3 3 2 2 2
2 3 6 7 5 4 7 9 9 7 4 4 3 3 3 4 5 2 1 2 1 2 3 2 2 1 1 0 1 1 0 0 0 1 0 1 1 2 2 2 3 3 3 3 4 3 3 1 2
2 4 5 6 5 4 7 10 8 6 4 3 4 4 4 4 4 2 1 2 2 3 3 3 3 2 1 1 1 1 1 1 1 1 1 1 2 1 2 2 2 4 3 3 4 4 3 1 2
4 4 5 6 7 4 4 7 4 2 1 1 2 3 3 4 4 3 2 2 2 3 3 3 3 3 2 1 0 1 1 0 1 1 1 1 1 1 1 2 2 3 4 4 5 5 5 3 2
5 5 5 6 4 4 1 5 5 3 3 3 4 4 3 3 2 2 2 2 2 3 2 2 3 3 2 2 2 3 2 2 1 1 1 2 1 1 1 1 2 2 2 3 4 4 3 5 3
5 5 5 5 3 3 2 3 7 2 4 5 5 5 3 2 2 2 3 2 1 2 2 2 2 1 1 2 3 3 2 1 1 0 0 1 1 0 1 1 1 1 1 2 3 3 3 3 3
3 2 2 1 1 3 5 4 6 4 5 5 5 4 3 3 2 2 2 1 1 1 1 2 2 1 1 1 2 2 3 2 1 1 0 0 1 0 0 0 0 1 1 2 2 3 4 3 3
2 3 3 4 2 5 3 3 7 5 4 4 5 4 3 2 2 1 2 2 1 1 0 1 2 1 1 1 0 1 2 2 2 2 1 1 1 0 1 0 0 1 1 1 2 2 3 3 3
1 2 3 2 3 5 3 5 6 4 3 2 2 2 1 1 1 1 2 1 1 1 0 0 1 1 1 1 0 1 1 1 1 1 1 1 1 1 0 0 0 0 1 1 2 2 1 2 2
1 0 1 2 2 4 5 5 5 3 5 5 3 3 2 2 2 1 1 1 1 1 1 0 0 0 0 1 1 1 1 1 0 0 0 0 0 0 0 0 0 0 1 1 2 1 2 2 1
2 2 2 2 0 4 6 4 4 5 5 5 4 4 3 3 3 2 2 2 2 1 1 0 0 1 0 0 0 0 1 1 0 0 0 0 0 1 1 1 1 1 1 1 2 1 2 2 1
1 1 1 1 2 2 4 6 2 3 3 3 4 4 3 2 2 2 2 2 1 1 1 1 1 0 0 0 0 1 1 1 1 0 0 0 1 1 1 1 1 1 1 1 2 2 2 3 1
2 2 3 2 3 2 3 8 3 2 3 2 3 3 3 2 2 2 2 2 2 2 2 1 1 1 0 0 0 1 1 1 1 1 1 0 0 0 1 1 1 1 1 1 2 2 2 2 2
Wind_Direction
333 337 28 57 65 69 227 238 239 250 250 259 261 104 119 126 144 163 113 115 117 133 144 147 139 137 134 130 127 124 121 119 116 113 112 111 111 110 112 109 106 106 106 105 103 100 97 98 96
333 344 53 67 114 192 241 228 229 232 226 334 27 54 69 70 61 98 89 122 129 135 141 144 132 132 133 132 130 129 127 124 120 117 115 114 114 109 110 110 108 106 104 103 102 102 99 98 97
333 28 88 98 167 198 213 215 218 245 290 20 34 31 75 80 59 109 145 132 123 132 141 144 133 130 131 131 132 133 131 128 125 123 120 118 114 113 108 111 108 104 101 99 100 101 99 97 92
43 50 62 124 215 221 213 241 221 251 338 27 86 42 14 4 353 121 129 125 122 127 139 145 135 133 128 128 130 135 135 131 130 128 124 120 117 114 111 107 110 109 107 104 101 98 98 97 94
61 88 110 217 231 233 247 291 313 275 314 349 70 94 338 338 39 89 108 120 126 130 138 145 138 138 134 130 131 131 134 136 134 131 127 124 121 116 114 105 112 113 111 111 109 105 100 99 98
62 87 146 218 231 239 266 295 311 11 306 349 61 111 248 340 50 91 105 104 121 128 138 143 138 138 137 135 131 133 135 140 138 133 130 127 125 122 118 116 112 117 116 114 111 106 104 99 101
109 125 186 209 228 252 273 299 217 22 345 315 26 117 220 324 6 94 109 104 104 117 124 135 145 143 143 136 134 129 136 139 140 136 132 129 128 127 122 128 117 122 122 120 115 109 102 103 100
123 112 195 216 211 236 308 338 13 29 296 333 56 134 214 266 315 92 95 94 96 94 107 117 120 132 145 148 137 131 127 134 138 135 130 127 128 131 127 131 121 129 130 124 118 112 107 95 93
83 107 210 215 205 236 323 347 333 337 73 14 11 210 240 210 100 97 95 74 85 80 81 117 121 123 133 151 144 136 134 136 137 139 131 124 129 131 130 133 123 126 132 129 125 118 111 92 83
94 178 220 223 210 217 305 307 314 352 356 344 350 351 360 120 125 128 143 143 130 121 98 104 118 141 135 142 141 150 145 144 144 146 145 138 137 139 129 130 127 124 130 127 125 118 105 82 70
128 192 226 273 285 272 285 300 324 185 273 249 237 281 16 123 146 155 171 172 169 171 154 144 135 149 142 138 151 156 149 146 149 151 153 147 141 138 125 124 123 121 125 117 111 97 88 89 102
150 260 239 267 291 294 291 295 307 259 250 254 219 207 192 223 216 190 189 192 177 171 166 154 156 152 157 142 159 166 156 155 158 175 159 157 156 154 149 141 137 136 152 140 128 130 117 95 125
239 262 272 271 295 284 300 284 263 278 272 272 223 199 219 230 253 225 198 189 166 170 172 171 163 168 173 154 162 155 169 166 166 176 171 163 168 168 161 156 159 166 165 155 155 157 148 132 133
206 280 296 290 283 289 286 281 268 270 274 257 226 216 231 241 252 248 190 153 176 179 179 179 175 168 171 167 166 160 169 170 166 175 181 166 168 166 161 162 165 177 183 169 163 167 161 156 148
221 339 325 297 266 267 299 292 254 253 248 245 253 241 240 254 262 229 220 182 183 192 174 174 178 154 163 167 171 157 171 168 176 185 185 170 161 165 161 163 166 186 179 165 150 143 133 137 132
6 16 298 295 269 262 215 263 272 246 228 253 260 259 255 261 265 247 222 207 192 179 161 160 164 156 164 160 167 149 163 158 175 184 194 174 161 164 167 165 174 180 166 164 156 150 139 149 154
5 266 258 287 280 263 218 261 277 266 242 252 253 251 247 260 280 271 231 210 208 191 172 171 154 163 161 127 143 146 142 151 180 176 206 176 160 163 171 174 178 173 161 167 168 155 157 163 173
246 256 258 268 275 270 262 268 282 281 251 245 244 246 248 256 272 264 248 229 215 199 177 169 152 152 146 120 110 104 90 91 63 211 207 164 156 164 163 176 172 163 157 173 165 157 158 167 172
234 260 268 271 273 275 258 270 279 277 265 252 247 254 259 265 272 246 242 241 219 184 172 164 142 117 142 151 155 125 141 324 347 324 244 142 144 159 157 174 171 166 170 185 170 155 152 145 133
253 276 277 282 281 270 264 269 268 253 234 232 238 243 261 275 284 285 275 236 199 195 180 168 171 162 178 228 239 167 150 275 258 270 275 167 158 164 142 171 177 177 171 176 168 154 153 156 147
271 244 255 269 303 285 279 281 260 258 244 291 278 260 273 253 251 255 261 240 203 191 186 191 187 180 176 149 78 114 106 53 354 322 321 275 181 162 151 177 177 180 180 182 179 173 166 172 184
264 251 259 272 296 289 266 280 269 233 263 269 271 270 268 276 276 275 280 257 206 197 182 186 185 178 155 138 186 171 169 187 246 256 279 303 228 162 156 172 174 171 171 179 189 182 177 166 177
247 264 264 264 248 279 264 238 274 225 257 270 268 267 271 277 266 268 274 266 224 183 163 155 148 135 149 165 195 183 170 169 150 95 53 333 317 177 140 164 159 154 161 172 187 178 173 176 178
267 312 317 345 99 265 245 219 274 246 241 259 265 266 273 276 271 277 294 320 356 82 118 110 113 94 118 179 183 160 151 140 130 107 182 300 306 318 5 41 162 181 161 169 180 189 181 183 178
35 61 14 357 342 254 256 229 253 257 251 242 250 258 268 272 269 297 319 339 358 33 82 114 124 107 101 76 129 154 152 157 167 169 198 209 233 264 265 319 196 207 173 175 168 163 188 180 174
310 133 151 233 259 290 300 244 259 272 312 313 278 271 307 300 282 268 271 277 279 272 282 50 116 118 113 118 194 101 121 149 173 183 202 209 218 246 222 315 247 230 156 165 162 158 158 166 163
89 176 194 150 308 286 273 277 301 348 360 355 343 355 348 328 311 290 299 312 287 253 245 198 160 242 153 154 142 124 102 88 131 205 10 206 183 68 92 93 23 357 131 151 142 151 131 120 130
139 150 85 106 251 286 294 285 290 318 323 333 340 340 327 327 322 317 320 326 302 273 277 312 178 208 232 98 110 97 103 84 105 127 191 152 92 70 81 112 90 52 74 107 116 121 117 112 115
48 77 106 147 185 214 286 279 268 270 290 302 309 319 316 310 307 309 316 315 320 340 345 9 1 60 49 36 289 94 87 80 57 61 338 127 98 103 122 152 137 131 114 111 120 116 120 128 133
181 183 154 164 256 223 245 272 308 302 309 309 312 326 326 312 305 305 313 337 358 346 347 7 353 12 336 207 128 74 77 80 65 7 343 21 88 95 112 139 129 117 100 115 125 132 123 140 147